Location: Borbetomagus
(49.6328°N, 8.3592°E)
Time: 00:27:45
(UTC+00:00)

Spot 2 Rocket - Pass Details

Date: 19 May 2025
Orbit: 753 x 766 km, 98.3° (Epoch: 23 June)

Event Time Altitude Azimuth Distance (km) Brightness Sun altitude
Exits shadow 20:17:46 - 159° (SSE) 2,324 5.4 -9.2°
Reaches altitude 10° 20:17:53 10° 159° (SSE) 2,275 5.4 -9.2°
Maximum altitude 20:22:54 79° 73° (ENE) 775 3.5 -9.8°
Drops below altitude 10° 20:27:57 10° 348° (NNW) 2,297 7.0 -10.3°
Sets 20:30:16 0° 347° (NNW) 3,229 7.9 -10.6°
